Location: Blankensee
(53.5126°N, 14.3055°E)
Time: 18:46:53
(UTC+00:00)

Cosmos 2219 - Pass Details

Date: 08 August 2020
Orbit: 834 x 860 km, 71.1° (Epoch: 19 September)

Event Time Altitude Azimuth Distance (km) Brightness Sun altitude
Exits shadow 02:14:18 10° 251° (WSW) 2,490 5.1 -9.9°
Reaches altitude 10° 02:14:26 10° 251° (WSW) 2,448 5.1 -9.9°
Maximum altitude 02:19:34 35° 317° (NW) 1,316 4.2 -9.3°
Drops below altitude 10° 02:24:43 10° 23° (NNE) 2,458 6.8 -8.8°
Sets 02:27:23 0° 33° (NNE) 3,397 8.1 -8.5°
